IRIDIUM 33 DEB, 34926

Orbit data source: Space-Track

IRIDIUM 33 DEB, 34926 is space debris in LEO originally from a launch on Sun, 14 Sep 1997 UTC launched from the Tyuratam Missile And Space Complex (TTMTR). The debris from Iridium 33, an American commercial communications satellite, has been tracked extensively since its accidental collision with the defunct Russian satellite Cosmos 2251 in 2009. This event, occurring at high speed in low Earth orbit (LEO), generated thousands of pieces of space debris, significantly increasing the risk of further collisions. The Iridium 33 debris cloud has impacted space traffic management and orbital debris mitigation strategies, making it a subject of ongoing study in space situational awareness.

Loading next visibility...
Identifier
34926, 1997-051NF
Orbit
LEO
Country
Flag of USUS
Related business
Manufacturer
Unknown
Mission
Spacecraft
Bus & Motor
Unknown
Mass
Unknown
Launch date (UTC)
1997-09-14 (29 years ago)
Launch vehicle
Unknown
Launch site
Tyuratam Missile And Space Complex (TTMTR)
Object type
Payload
Rocket body
Debris
Shape & HBR
Unknown shape, 0.1 m
Radar Cross Section
Small (<0.1 m²)

Expand to show TLE details & history
Last TLE update: 12 hours ago

TLE from 12 hours ago
0 IRIDIUM 33 DEB
1 34926U 97051NF  26121.22802162  .00028935  00000-0  56695-2 0  9991
2 34926  86.1312 303.2322 0071940 180.1970 234.7897 14.60977856884899
Epoch: 2026-05-01T05:28Z
TLE epoch observation values (Epoch: 2026-05-01T05:28:21.067Z)
Latitude
54.23472°
Longitude
7.33941°
Altitude
728.616 km
Speed
7.48 km/s
True Right ascension
20h 34m 21s
True Declination
54° 04' 15"
Sunlit
Object was in daylight at epoch
Visualization orbit readout
Latitude
Unknown
Longitude
Unknown
Altitude
Unknown
Speed
Unknown
Apparent Right ascension
Unknown
Apparent Declination
Unknown
Sunlit
N/A
Visualization observer readout
Local Sidereal Time
01:16:22
Azimuth
Unknown
Elevation
Unknown
Doppler factor
Unknown
Orbital elements
Apogee altitude
737.777 km
Perigee altitude
636.124 km
Semi-major axis
7,065.087 km
Eccentricity
0.00719
Inclination
86.1312°
RAAN
303.2322°
Arg. of periapsis
180.197°
True anomaly
234.11964°
Mean anomaly
234.7897°
Eccentric anomaly
234.45432°
Mean motion
3.65483 °/min
Orbital period
98.5 mins
BSTAR
0.0056695
Loading maneuver chart data...
Computing Atmospheric mass density...
Loading historical data...
Loading historical data...
Loading historical data...
Loading historical data...
Loading historical data...
Loading historical data...
Loading historical data...

Documentation

Showing up to 5 results
|